EHI
0 0 0 0 0 0 0 0 0 0 0 0 0 0 0 0 0 0 0 0 0 0 0 0 0 0 0 0 0 0 0 0 0 0 0 0 0 0 0 0 0 0 0 0
0 0 0 0 0 0 0 0 0 0 0 0 0 0 0 0 0 0 0 0 0 0 0 0 0 0 0 0 0 0 0 0 0 0 0 0 0 0 0 0 0 0 0 0
0 0 0 0 0 0 0 0 0 0 0 0 0 0 0 0 0 0 0 0 0 0 0 0 0 0 0 0 0 0 0 0 0 0 0 0 0 0 0 0 0 0 0 0
0 0 0 0 0 0 0 0 0 0 0 0 0 0 0 0 0 0 0 0 0 0 0 0 0 0 0 0 0 0 0 0 0 0 0 0 0 0 0 0 0 0 0 0
0 0 0 0 0 0 0 0 0 0 0 0 0 0 0 0 0 0 0 0 0 0 0 0 0 0 0 0 0 0 0 0 0 0 0 0 0 0 0 0 0 0 0 0
0 0 0 0 0 0 0 0 0 0 0 0 0 0 0 0 0 0 0 0 0 0 0 0 0 0 0 0 0 0 0 0 0 0 0 0 0 0 0 0 0 0 0 0
0 0 0 0 0 0 0 0 0 0 0 0 0 0 0 0 0 0 0 0 0 0 0 0 0 0 0 0 0 0 0 0 0 0 0 0 0 0 0 0 0 0 0 0
0 0 0 0 0 0 0 0 0 0 0 0 0 0 0 0 0 0 0 0 0 0 0 0 0 0 0 0 0 0 0 0 0 0 0 0 0 0 0 0 0 0 0 0
0 0 0 0 0 0 0 0 0 0 0 0 0 0 0 0 0 0 0 0 0 0 0 0 0 0 0 0 0 0 0 0 0 0 0 0 0 0 0 0 0 0 0 0
0 0 0 0 0 0 0 0 0 0 0 0 0 0 0 0 0 0 0 0 0 0 0 0 0 0 0 0 0 0 0 0 0 0 0 0 0 0 0 0 0 0 0 0
0 0 0 0 0 0 0 0 0 0 0 0 0 0 0 0 0 0 0 0 0 0 0 0 0 0 0 0 0 0 0 0 0 0 0 0 0 0 0 0 0 0 0 0
0 0 0 0 0 0 0 0 0 0 0 0 0 0 0 0 0 0 0 0 0 0 0 0 0 0 0 0 0 0 0 0 0 0 0 0 0 0 0 0 0 0 0 0
0 0 0 0 0 0 0 0 0 0 0 0 0 0 0 0 0 0 0 0 0 0 0 0 0 0 0 0 0 0 0 0 0 0 0 0 0 0 0 0 0 0 0 0
0 0 0 0 0 0 0 0 0 0 0 0 0 0 0 0 0 0 0 0 0 0 0 0 0 0 0 0 0 0 0 0 0 0 0 0 0 0 0 0 0 0 0 0
0 0 0 0 0 0 0 0 0 0 0 0 0 0 0 0 0 0 0 0 0 0 0 0 0 0 0 0 0 0 0 0 0 0 0 0 0 0 0 0 0 0 0 0
0 0 0 0 0 0 0 0 0 0 0 0 0 0 0 0 0 0 0 0 0 0 0 0 0 0 0 0 0 0 0 0 0 0 0 0 0 0 0 0 0 0 0 0
0 0 0 0 0 0 0 0 0 0 0 0 0 0 0 0 0 0 0 0 0 0 0 0 0 0 0 0 0 0 0 0 0 0 0 0 0 0 0 0 0 0 0 0
0 0 0 0 0 0 0 0 0 0 0 0 0 0 0 0 0 0 0 0 0 0 0 0 0 0 0 0 0 0 0 0 0 0 0 0 0 0 0 0 0 0 0 0
0 0 0 0 0 0 0 0 0 0 0 0 0 0 0 0 0 0 0 0 0 0 0 0 0 0 0 0 0 0 0 0 0 0 0 0 0 0 0 0 0 0 0 0
0 0 0 0 0 0 0 0 0 0 0 0 0 0 0 0 0 0 0 0 0 0 0 0 0 0 0 0 0 0 0 0 0 0 0 0 0 0 0 0 0 0 0 0
0 0 0 0 0 0 0 0 0 0 0 0 0 0 0 0 0 0 0 0 0 0 0 0 0 0 0 0 0 0 0 0 0 0 0 0 0 0 0 0 0 0 0 0
0 0 0 0 0 0 0 0 0 0 0 0 0 0 0 0 0 0 0 0 0 0 0 0 0 0 0 0 0 0 0 0 0 0 0 0 0 0 0 0 0 0 0 0
0 0 0 0 0 0 0 0 0 0 0 0 0 0 0 0 0 0 0 0 0 0 0 0 0 0 0 0 0 0 0 0 0 0 0 0 0 0 0 0 0 0 0 0
0 0 0 0 0 0 0 0 0 0 0 0 0 0 0 0 0 0 0 0 0 0 0 0 0 0 0 0 0 0 0 0 0 0 0 0 0 0 0 0 0 0 0 0
0 0 0 0 0 0 0 0 0 0 0 0 0 0 0 0 0 0 0 0 0 0 0 0 0 0 0 0 0 0 0 0 0 0 0 0 0 0 0 0 0 0 0 0
0 0 0 0 0 0 0 0 0 0 0 0 0 0 0 0 0 0 0 0 0 0 0 0 0 0 0 0 0 0 0 0 0 0 0 0 0 0 0 0 0 0 0 0
0 0 0 0 0 0 0 0 0 0 0 0 0 0 0 0 0 0 0 0 0 0 0 0 0 0 0 0 0 0 0 0 0 0 0 0 0 0 0 0 0 0 0 0
Wind_Speed
11 6 10 13 17 20 23 22 18 17 19 19 16 14 11 9 7 6 5 5 6 7 7 8 9 10 10 11 11 11 12 12 11 10 9 9 8 8 7 7 7 6 6 6
12 9 9 9 14 19 22 21 23 21 20 17 16 13 12 12 9 8 7 6 6 6 7 8 9 9 10 10 11 11 12 11 10 9 9 9 8 8 7 7 6 6 7 7
11 9 7 14 18 18 15 16 17 21 21 15 12 12 12 10 8 8 7 5 5 6 6 6 7 8 9 9 10 10 10 10 10 10 9 9 8 7 7 7 7 7 7 8
7 9 13 10 7 17 19 18 19 17 16 15 13 10 8 8 8 8 6 5 5 4 5 5 5 6 7 8 9 9 9 9 9 9 9 8 8 7 7 6 6 7 7 8
8 11 10 6 7 11 15 16 18 20 19 13 4 4 8 8 8 6 5 4 3 4 4 5 6 7 8 8 8 8 8 9 9 9 8 8 7 7 6 6 6 7 7 8
8 10 11 8 7 9 8 10 11 16 17 11 8 7 5 5 6 5 4 4 5 5 6 6 6 7 8 8 8 8 7 7 7 7 7 7 7 6 5 5 6 6 7 8
11 11 10 4 8 12 10 7 4 11 12 11 12 7 3 7 6 6 6 6 6 6 6 6 6 7 7 7 6 6 6 6 6 6 6 5 5 4 4 5 6 7 8 9
12 12 10 9 12 14 7 3 5 6 8 10 9 5 6 7 7 7 7 7 7 6 6 6 6 7 7 6 6 6 6 6 5 5 4 3 4 4 5 5 7 8 9 9
12 11 2 14 12 8 3 5 6 6 7 9 9 8 8 7 7 7 7 7 6 7 7 6 5 5 6 6 6 6 6 5 4 3 3 3 4 5 5 5 6 7 7 8
7 8 6 10 7 5 6 5 5 6 8 10 9 10 9 8 8 7 7 7 6 7 7 6 5 5 5 6 6 5 5 4 3 2 3 3 3 4 5 6 6 7 8 9
9 4 4 7 12 11 9 6 5 6 7 9 10 10 10 9 8 7 7 6 6 6 7 7 6 5 5 5 5 4 3 2 2 2 3 4 5 5 7 7 7 8 9 9
10 10 9 9 10 12 11 11 10 9 7 8 9 10 10 8 8 8 7 7 7 6 7 7 6 6 5 4 4 3 2 2 2 2 3 4 5 6 9 11 14 16 17 16
6 6 6 3 5 9 10 10 10 10 10 10 8 9 10 8 8 8 8 8 7 7 7 7 6 5 4 3 3 2 2 2 2 3 4 5 5 7 8 8 12 15 17 18
4 6 5 5 5 7 7 7 8 7 7 8 8 9 9 8 8 8 8 7 7 7 7 6 5 4 3 2 2 2 2 3 4 4 5 6 6 7 8 9 10 9 11 15
9 6 5 5 7 7 7 9 10 9 9 8 8 9 10 10 9 8 7 7 7 7 6 5 4 3 2 2 2 3 3 3 4 5 6 6 7 8 8 10 10 10 10 11
9 6 6 7 8 9 9 10 11 11 10 10 9 9 9 9 9 9 8 7 7 6 5 4 3 2 1 1 2 3 4 6 7 6 7 7 7 8 8 9 10 10 10 10
12 11 10 9 10 11 10 10 10 11 11 11 11 11 11 11 10 8 7 5 5 4 3 3 2 1 1 2 3 3 4 5 8 7 7 7 8 8 9 9 10 10 10 12
12 13 13 12 12 12 10 10 10 11 11 11 12 11 11 10 10 8 7 6 5 3 2 2 1 1 2 3 3 4 5 6 6 7 7 8 8 9 9 10 11 12 11 11
8 8 9 9 10 11 11 11 11 11 12 12 12 11 9 9 9 8 6 5 4 2 2 1 1 2 3 4 5 5 6 7 7 8 8 11 11 9 10 10 11 11 11 11
8 9 10 10 11 11 12 12 13 12 11 12 12 11 10 8 7 6 5 3 1 1 0 1 2 3 4 5 7 6 7 8 9 9 9 9 10 10 10 11 11 11 11 11
11 12 13 13 12 12 12 14 14 13 11 11 11 11 10 8 6 5 3 2 2 1 1 3 3 4 4 6 9 7 7 8 9 9 9 10 10 10 11 11 11 11 11 11
12 13 14 14 15 13 11 11 13 14 12 11 11 10 9 7 5 3 2 1 1 2 3 3 3 6 8 10 7 7 8 9 9 9 9 9 10 10 11 11 11 11 10 10
12 14 14 15 15 15 13 12 12 12 11 11 9 8 7 5 3 2 1 1 1 4 4 4 6 11 13 9 7 7 8 9 9 9 9 10 10 10 10 11 11 11 11 11
14 14 14 14 15 16 14 12 11 10 10 9 7 6 5 4 2 2 1 2 4 6 5 6 10 12 12 6 6 7 8 8 9 9 10 10 10 10 10 11 11 11 11 13
15 15 15 15 13 11 12 12 11 10 9 7 7 5 4 2 2 1 2 3 5 6 5 7 10 12 8 6 7 8 8 9 10 10 10 10 10 10 10 10 11 11 11 11
13 12 10 10 10 9 8 8 7 6 6 5 4 3 3 2 1 1 2 3 5 7 6 5 6 8 6 7 8 9 9 10 10 9 10 10 11 11 11 11 14 11 11 11
13 11 10 9 8 7 7 7 7 6 4 4 3 2 2 1 1 2 3 3 4 5 5 6 6 6 7 8 8 9 9 9 9 9 10 10 10 10 11 13 11 11 11 11
Wind_Direction
223 185 180 200 205 206 216 228 240 247 249 253 256 263 271 275 271 260 250 228 216 212 205 200 199 199 197 194 189 185 186 189 189 185 180 177 178 181 183 191 202 209 220 230
206 190 195 212 215 212 221 231 241 252 259 258 262 265 263 262 257 251 245 232 219 210 205 202 198 197 194 193 188 186 189 190 183 178 176 178 181 181 186 197 205 215 226 237
205 185 198 234 221 213 216 222 229 239 247 252 249 246 250 254 246 242 240 226 215 208 202 200 196 193 191 187 181 185 189 185 179 178 177 179 179 185 194 204 213 224 235 244
169 168 220 234 210 216 223 230 226 237 249 249 249 255 253 249 244 237 224 211 201 191 183 178 175 176 173 170 174 180 183 181 178 177 178 177 183 194 204 213 223 235 244 252
181 209 237 240 203 194 208 235 228 231 242 245 234 254 249 229 225 223 206 188 168 159 154 151 154 156 156 160 167 174 179 179 177 176 175 179 191 203 210 222 234 243 252 258
184 208 227 223 175 171 182 243 227 218 230 225 181 226 235 161 171 168 153 142 137 134 134 136 139 149 153 157 165 172 174 174 171 174 177 187 199 209 217 230 245 252 256 262
201 218 238 196 142 156 193 229 178 198 211 194 198 222 121 136 144 144 135 131 133 131 128 129 140 148 151 155 162 159 157 158 162 171 182 192 202 213 226 238 250 258 266 268
205 217 223 158 158 190 208 123 163 181 190 190 192 160 144 148 145 144 139 137 137 131 124 128 143 150 148 150 144 144 148 153 159 168 169 192 211 228 239 248 260 267 272 276
201 215 181 169 191 202 163 177 181 180 181 176 173 175 166 160 154 149 145 140 140 135 128 129 142 152 146 139 141 146 150 153 156 167 184 210 231 243 252 255 261 271 275 278
200 220 205 201 210 203 200 200 184 179 171 173 174 170 165 159 156 153 150 147 145 143 138 136 140 143 134 135 145 151 153 154 163 192 220 234 241 248 253 258 264 270 275 279
208 207 200 222 219 213 203 200 185 176 180 180 169 167 166 161 161 157 150 148 150 150 143 138 139 134 132 140 148 151 152 162 195 231 248 257 254 253 258 260 262 269 277 279
206 194 192 205 204 200 196 200 192 177 172 177 176 166 160 157 155 153 151 148 148 146 142 140 141 135 133 139 151 155 173 208 238 254 261 266 273 273 250 253 267 266 269 274
194 174 185 164 168 181 195 196 183 180 172 166 166 159 152 144 146 146 146 151 151 147 143 142 140 136 135 141 158 183 217 243 258 263 269 273 277 281 287 275 263 268 272 276
163 142 163 186 181 175 172 160 153 150 148 150 146 144 140 134 139 145 148 147 142 139 140 141 140 137 136 151 178 219 248 257 264 268 273 276 277 279 283 289 292 287 281 281
195 196 174 145 134 138 139 141 142 146 142 138 141 144 144 142 142 139 134 134 134 134 136 141 144 143 145 178 219 247 261 267 272 276 275 276 277 278 280 283 284 289 291 288
179 170 159 158 159 156 155 160 160 159 154 147 145 142 136 128 125 125 130 139 143 143 146 152 158 154 167 213 247 263 267 270 278 280 278 278 279 280 282 283 285 286 288 291
161 177 183 184 182 179 178 175 167 157 152 148 141 133 129 125 124 126 129 133 130 132 144 155 155 153 210 251 269 275 277 276 277 278 276 279 280 280 281 282 284 285 286 290
197 194 187 183 181 176 169 159 151 147 145 139 134 134 137 139 138 136 133 127 120 118 128 131 133 229 258 271 277 278 276 277 278 279 280 280 281 282 282 282 285 287 290 293
187 174 169 165 161 157 151 147 142 135 132 136 136 134 131 128 128 130 133 135 138 138 129 111 283 277 277 279 285 278 277 279 280 281 282 284 285 283 284 285 286 289 291 292
153 144 138 133 132 135 136 133 130 127 130 132 127 124 123 124 127 128 129 126 116 97 99 290 287 285 289 287 289 280 278 280 283 286 286 285 285 286 286 286 287 288 288 288
139 133 129 126 121 120 126 130 128 126 126 128 127 126 124 123 123 124 129 126 108 91 299 292 292 295 295 294 290 284 284 286 288 288 288 288 288 288 287 287 287 287 287 287
131 128 125 123 119 114 115 118 119 120 119 116 114 117 119 120 120 113 108 119 65 325 309 294 295 300 303 302 293 290 290 290 290 289 288 287 287 287 287 288 288 287 287 287
122 122 121 120 118 114 109 108 112 114 116 117 119 121 120 118 119 124 110 88 331 316 309 300 307 308 310 307 297 294 292 291 290 289 288 287 286 286 287 288 287 288 288 287
116 115 115 116 115 112 108 106 102 101 102 101 101 105 110 109 96 82 54 334 325 318 308 307 311 314 315 306 298 294 293 291 290 289 288 287 286 287 287 288 288 287 287 287
114 115 117 118 113 110 112 111 106 104 102 100 98 92 82 72 76 35 340 323 322 319 309 311 314 316 312 299 296 294 293 290 290 292 291 292 292 291 289 288 288 288 287 286
112 110 107 104 107 113 117 115 111 111 111 108 102 93 80 64 41 353 326 317 314 313 311 307 307 307 301 298 297 296 295 295 296 294 292 292 291 291 289 289 290 288 287 285
105 104 102 98 96 101 105 107 109 108 106 110 110 99 67 33 2 340 323 315 313 310 306 304 304 302 300 299 299 297 296 295 294 294 293 292 291 290 290 290 289 288 287 286